Content
SEND FEEDBACK

Daily
Averages
Monthly
Summary
United States of America

ROCKSPRINGS - NORTHEAST, TEXAS


Home > North America > United States > Texas
Elevation: 2150 feet     Latitude: 30 11N     Longitude: 100 02W

WEATHER
 
SELECT A DAY
Number of Records: 234,680;   Date Range: 11/11/04 - 12/24/14
 
SHARE

PRINT THIS DATA

[ ← Previous Day ]
WEATHER ALMANAC - JANUARY 31, 2013
[ Next Day → ]
[ °C ]   °F
Weather ElementAverageHighLow
Temperature49.9 °F62.6 °F (3:15 pm)35.6 °F (2:55 am)
Dewpoint14.8 °F21.2 °F (11:35 pm)8.6 °F (12:55 am)
Humidity25.8 %48 % (2:55 am)16 % (3:15 pm)
Barometer30.24 in30.31 in (10:55 am)30.20 in (1:35 am)
Wind Speed4.6 mph13.8 mph (11:35 am)
Wind Gust21.9 mph (11:55 am)
Weather ElementAverage
Visibility10 mi
Wind DirectionESE (110 °)

Weather ElementTotal
Precipitation---
Heating Degree Days15.9 (Base 65)
Averaged from 70 records on January 31, 2013
WEATHER CONDITIONS BREAKOUT
WIND DIRECTION BREAKOUT
WEATHER BY HOUR - JANUARY 31, 2013
[ °C ]   °F
Local TimeTemperatureDewpointHumidityBarometerVisibilityWind DirectionWind SpeedGust SpeedPrecipitationEventsConditions
12:35 AM42.8 °F10.4 °F27 %30.23 in10.0 miCalmClear
12:55 AM44.6 °F8.6 °F23 %30.22 in10.0 miCalmClear
1:15 AM44.6 °F8.6 °F23 %30.21 in10.0 miNorth (350°)5.8 mphClear
1:35 AM44.6 °F8.6 °F23 %30.20 in10.0 miNorth (360°)6.9 mphClear
1:55 AM42.8 °F8.6 °F25 %30.21 in10.0 miCalmClear
2:15 AM39.2 °F10.4 °F31 %30.21 in10.0 miCalmClear
2:35 AM37.4 °F12.2 °F36 %30.21 in10.0 miCalmClear
2:55 AM35.6 °F17.6 °F48 %30.21 in10.0 miCalmClear
3:15 AM35.6 °F15.8 °F44 %30.21 in10.0 miCalmClear
3:35 AM37.4 °F14.0 °F38 %30.21 in10.0 miSSW (210°)5.8 mphClear
3:55 AM37.4 °F14.0 °F38 %30.22 in10.0 miSSW (210°)5.8 mphClear
4:15 AM37.4 °F12.2 °F36 %30.22 in10.0 miSSW (210°)6.9 mphClear
4:35 AM39.2 °F12.2 °F33 %30.22 in10.0 miSSW (200°)6.9 mphClear
4:55 AM39.2 °F12.2 °F33 %30.22 in10.0 miSouth (190°)5.8 mphClear
5:15 AM39.2 °F12.2 °F33 %30.21 in10.0 miSouth (180°)4.6 mphClear
5:35 AM39.2 °F12.2 °F33 %30.22 in10.0 miSouth (190°)5.8 mphClear
5:55 AM39.2 °F12.2 °F33 %30.23 in10.0 miCalmClear
6:15 AM39.2 °F12.2 °F33 %30.23 in10.0 miSSW (200°)6.9 mphClear
6:55 AM39.2 °F12.2 °F33 %30.23 in10.0 miCalmClear
7:15 AM39.2 °F12.2 °F33 %30.23 in10.0 miSSW (200°)5.8 mphClear
7:35 AM39.2 °F12.2 °F33 %30.24 in10.0 miCalmClear
7:55 AM39.2 °F14.0 °F36 %30.25 in10.0 miSouth (190°)5.8 mphClear
8:15 AM41.0 °F14.0 °F33 %30.26 in10.0 miSSW (200°)3.5 mphClear
8:35 AM42.8 °F14.0 °F31 %30.26 in10.0 miSouth (180°)3.5 mphClear
8:55 AM44.6 °F14.0 °F29 %30.26 in10.0 miSouth (180°)5.8 mphClear
9:15 AM46.4 °F14.0 °F27 %30.27 in10.0 miSouth (180°)5.8 mphClear
9:35 AM48.2 °F12.2 °F24 %30.28 in10.0 miSouth (190°)12.7 mph17.3 mphClear
9:55 AM51.8 °F14.0 °F22 %30.30 in10.0 miSouth (180°)10.4 mphClear
10:15 AM53.6 °F12.2 °F19 %30.30 in10.0 miSSW (200°)11.5 mphClear
10:35 AM53.6 °F12.2 °F19 %30.30 in10.0 miSW (220°)12.7 mph16.1 mphClear
10:55 AM53.6 °F12.2 °F19 %30.31 in10.0 miSouth (190°)11.5 mph17.3 mphClear
11:15 AM55.4 °F14.0 °F20 %30.31 in10.0 miSSW (200°)11.5 mphClear
11:35 AM57.2 °F14.0 °F18 %30.30 in10.0 miSW (220°)13.8 mph19.6 mphClear
11:55 AM55.4 °F14.0 °F20 %30.30 in10.0 miSSW (210°)12.7 mph21.9 mphClear
12:15 PM57.2 °F14.0 °F18 %30.29 in10.0 miSSW (210°)10.4 mph17.3 mphClear
12:35 PM59.0 °F15.8 °F19 %30.29 in10.0 miSSW (200°)11.5 mphClear
12:55 PM60.8 °F17.6 °F19 %30.27 in10.0 miSouth (180°)13.8 mph20.7 mphClear
1:15 PM60.8 °F17.6 °F19 %30.25 in10.0 miSSW (210°)11.5 mph18.4 mphClear
1:35 PM60.8 °F17.6 °F19 %30.23 in10.0 miSSW (210°)12.7 mphClear
1:55 PM60.8 °F15.8 °F17 %30.22 in10.0 miSSW (210°)8.1 mph18.4 mphClear
2:15 PM60.8 °F15.8 °F17 %30.21 in10.0 miSW (220°)9.2 mphClear
2:35 PM60.8 °F15.8 °F17 %30.22 in10.0 miSSW (200°)8.1 mph16.1 mphClear
2:55 PM60.8 °F15.8 °F17 %30.21 in10.0 miSSW (200°)10.4 mphClear
3:15 PM62.6 °F15.8 °F16 %30.20 in10.0 miSSW (200°)6.9 mphClear
3:35 PM62.6 °F15.8 °F16 %30.21 in10.0 miSW (220°)10.4 mphClear
3:55 PM62.6 °F15.8 °F16 %30.21 in10.0 miSSW (200°)6.9 mphClear
4:15 PM60.8 °F15.8 °F17 %30.20 in10.0 miSSW (200°)12.7 mph17.3 mphClear
4:35 PM60.8 °F14.0 °F16 %30.21 inCalmClear
4:55 PM60.8 °F15.8 °F17 %30.21 inCalmClear
5:15 PM60.8 °F15.8 °F17 %30.20 inCalmClear
5:35 PM59.0 °F17.6 °F20 %30.20 in10.0 miCalmClear
5:55 PM57.2 °F17.6 °F21 %30.21 in10.0 miCalmClear
6:15 PM55.4 °F17.6 °F23 %30.21 in10.0 miCalmClear
6:35 PM55.4 °F17.6 °F23 %30.23 in10.0 miCalmClear
6:55 PM55.4 °F17.6 °F23 %30.24 in10.0 miCalmClear
7:15 PM53.6 °F17.6 °F24 %30.25 in10.0 miCalmClear
7:35 PM53.6 °F17.6 °F24 %30.26 in10.0 miCalmClear
7:55 PM51.8 °F17.6 °F26 %30.26 in10.0 miCalmClear
8:15 PM51.8 °F17.6 °F26 %30.26 in10.0 miCalmClear
8:35 PM51.8 °F17.6 °F26 %30.28 in10.0 miCalmClear
8:55 PM51.8 °F17.6 °F26 %30.27 in10.0 miCalmClear
9:15 PM51.8 °F15.8 °F24 %30.28 in10.0 miCalmClear
9:35 PM50.0 °F17.6 °F28 %30.27 in10.0 miCalmClear
9:55 PM50.0 °F17.6 °F28 %30.28 in10.0 miCalmClear
10:15 PM50.0 °F17.6 °F28 %30.28 in10.0 miCalmClear
10:35 PM50.0 °F17.6 °F28 %30.28 in10.0 miCalmClear
10:55 PM50.0 °F19.4 °F30 %30.28 in10.0 miCalmClear
11:15 PM50.0 °F19.4 °F30 %30.29 in10.0 miCalmClear
11:35 PM50.0 °F21.2 °F32 %30.29 in10.0 miCalmClear
11:55 PM50.0 °F19.4 °F30 %30.28 in10.0 miCalmClear
Hourly data recorded from KECU, located miles away from Rocksprings - Northeast, Texas







STORIES FROM OUR PARTNERS